owner,sensor,date,latitude,longitude,vertical_datum,wind_speed,wind_to_direction,wind_speed_of_gust,qcFlag 
DISL,ioos:station:DISL:PPTA:1,2012-12-01T00:00:00Z,30.2791,-87.5561,0.0,5.07,77.34,-9999.0,'1111122,1111122,1111122' 
DISL,ioos:station:DISL:PPTA:1,2012-12-01T00:30:00Z,30.2791,-87.5561,0.0,3.68,66.44,-9999.0,'1111122,1111122,1111122' 
DISL,ioos:station:DISL:PPTA:1,2012-12-01T01:00:00Z,30.2791,-87.5561,0.0,3.95,63.81,-9999.0,'1111122,1111122,1111122' 
DISL,ioos:station:DISL:PPTA:1,2012-12-01T01:30:00Z,30.2791,-87.5561,0.0,2.76,49.26,-9999.0,'1111122,1111122,1111122' 
DISL,ioos:station:DISL:PPTA:1,2012-12-01T02:00:00Z,30.2791,-87.5561,0.0,2.95,81.6,-9999.0,'1111122,1111122,1111122' 
DISL,ioos:station:DISL:PPTA:1,2012-12-01T02:30:00Z,30.2791,-87.5561,0.0,0.83,61.11,-9999.0,'1111122,1111122,1111122' 
DISL,ioos:station:DISL:PPTA:1,2012-12-01T03:00:00Z,30.2791,-87.5561,0.0,1.05,70.68,-9999.0,'1111122,1111122,1111122' 
DISL,ioos:station:DISL:PPTA:1,2012-12-01T03:30:00Z,30.2791,-87.5561,0.0,2.06,155.4,-9999.0,'1111122,1111122,1111122' 
DISL,ioos:station:DISL:PPTA:1,2012-12-01T04:00:00Z,30.2791,-87.5561,0.0,1.37,172.6,-9999.0,'1111122,1111122,1111122' 
DISL,ioos:station:DISL:PPTA:1,2012-12-01T04:30:00Z,30.2791,-87.5561,0.0,0.2,208.2,-9999.0,'1111122,1111122,1111122' 
DISL,ioos:station:DISL:PPTA:1,2012-12-01T05:00:00Z,30.2791,-87.5561,0.0,0.34,255.0,-9999.0,'1111122,1111122,1111122' 
DISL,ioos:station:DISL:PPTA:1,2012-12-01T05:30:00Z,30.2791,-87.5561,0.0,0.59,252.8,-9999.0,'1111122,1111122,1111122' 
DISL,ioos:station:DISL:PPTA:1,2012-12-01T06:00:00Z,30.2791,-87.5561,0.0,0.37,249.3,-9999.0,'1111122,1111122,1111122' 
DISL,ioos:station:DISL:PPTA:1,2012-12-01T06:30:00Z,30.2791,-87.5561,0.0,0.43,318.3,-9999.0,'1111122,1111122,1111122' 
DISL,ioos:station:DISL:PPTA:1,2012-12-01T07:00:00Z,30.2791,-87.5561,0.0,1.3,8.41,-9999.0,'1111122,1111122,1111122' 
DISL,ioos:station:DISL:PPTA:1,2012-12-01T07:30:00Z,30.2791,-87.5561,0.0,1.6,25.21,-9999.0,'1111122,1111122,1111122' 
DISL,ioos:station:DISL:PPTA:1,2012-12-01T08:00:00Z,30.2791,-87.5561,0.0,1.09,346.9,-9999.0,'1111122,1111122,1111122' 
DISL,ioos:station:DISL:PPTA:1,2012-12-01T08:30:00Z,30.2791,-87.5561,0.0,1.89,54.99,-9999.0,'1111122,1111122,1111122' 
DISL,ioos:station:DISL:PPTA:1,2012-12-01T09:00:00Z,30.2791,-87.5561,0.0,2.75,61.34,-9999.0,'1111122,1111122,1111122' 
DISL,ioos:station:DISL:PPTA:1,2012-12-01T09:30:00Z,30.2791,-87.5561,0.0,2.88,64.12,-9999.0,'1111122,1111122,1111122' 
DISL,ioos:station:DISL:PPTA:1,2012-12-01T10:00:00Z,30.2791,-87.5561,0.0,2.88,53.05,-9999.0,'1111122,1111122,1111122' 
DISL,ioos:station:DISL:PPTA:1,2012-12-01T10:30:00Z,30.2791,-87.5561,0.0,2.52,64.26,-9999.0,'1111122,1111122,1111122' 
DISL,ioos:station:DISL:PPTA:1,2012-12-01T11:00:00Z,30.2791,-87.5561,0.0,2.65,69.53,-9999.0,'1111122,1111122,1111122' 
DISL,ioos:station:DISL:PPTA:1,2012-12-01T11:30:00Z,30.2791,-87.5561,0.0,3.5,50.54,-9999.0,'1111122,1111122,1111122' 
DISL,ioos:station:DISL:PPTA:1,2012-12-01T12:00:00Z,30.2791,-87.5561,0.0,3.1,56.09,-9999.0,'1111122,1111122,1111122' 
DISL,ioos:station:DISL:PPTA:1,2012-12-01T12:30:00Z,30.2791,-87.5561,0.0,2.51,53.08,-9999.0,'1111122,1111122,1111122' 
DISL,ioos:station:DISL:PPTA:1,2012-12-01T13:00:00Z,30.2791,-87.5561,0.0,2.54,54.31,-9999.0,'1111122,1111122,1111122' 
DISL,ioos:station:DISL:PPTA:1,2012-12-01T13:30:00Z,30.2791,-87.5561,0.0,2.35,55.85,-9999.0,'1111122,1111122,1111122' 
DISL,ioos:station:DISL:PPTA:1,2012-12-01T14:00:00Z,30.2791,-87.5561,0.0,2.8,56.17,-9999.0,'1111122,1111122,1111122' 
DISL,ioos:station:DISL:PPTA:1,2012-12-01T14:30:00Z,30.2791,-87.5561,0.0,2.72,61.18,-9999.0,'1111122,1111122,1111122' 
DISL,ioos:station:DISL:PPTA:1,2012-12-01T15:00:00Z,30.2791,-87.5561,0.0,4.74,75.59,-9999.0,'1111122,1111122,1111122' 
DISL,ioos:station:DISL:PPTA:1,2012-12-01T15:30:00Z,30.2791,-87.5561,0.0,4.29,79.52,-9999.0,'1111122,1111122,1111122' 
DISL,ioos:station:DISL:PPTA:1,2012-12-01T16:00:00Z,30.2791,-87.5561,0.0,4.31,82.4,-9999.0,'1111122,1111122,1111122' 
DISL,ioos:station:DISL:PPTA:1,2012-12-01T16:30:00Z,30.2791,-87.5561,0.0,4.58,81.4,-9999.0,'1111122,1111122,1111122' 
DISL,ioos:station:DISL:PPTA:1,2012-12-01T17:00:00Z,30.2791,-87.5561,0.0,4.88,78.98,-9999.0,'1111122,1111122,1111122' 
DISL,ioos:station:DISL:PPTA:1,2012-12-01T17:30:00Z,30.2791,-87.5561,0.0,4.25,81.6,-9999.0,'1111122,1111122,1111122' 
DISL,ioos:station:DISL:PPTA:1,2012-12-01T18:00:00Z,30.2791,-87.5561,0.0,3.96,76.76,-9999.0,'1111122,1111122,1111122' 
DISL,ioos:station:DISL:PPTA:1,2012-12-01T18:30:00Z,30.2791,-87.5561,0.0,4.47,72.74,-9999.0,'1111122,1111122,1111122' 
DISL,ioos:station:DISL:PPTA:1,2012-12-01T19:00:00Z,30.2791,-87.5561,0.0,4.04,73.28,-9999.0,'1111122,1111122,1111122' 
DISL,ioos:station:DISL:PPTA:1,2012-12-01T19:30:00Z,30.2791,-87.5561,0.0,3.63,80.6,-9999.0,'1111122,1111122,1111122' 
DISL,ioos:station:DISL:PPTA:1,2012-12-01T20:00:00Z,30.2791,-87.5561,0.0,4.01,79.12,-9999.0,'1111122,1111122,1111122' 
DISL,ioos:station:DISL:PPTA:1,2012-12-01T20:30:00Z,30.2791,-87.5561,0.0,4.67,74.45,-9999.0,'1111122,1111122,1111122' 
DISL,ioos:station:DISL:PPTA:1,2012-12-01T21:00:00Z,30.2791,-87.5561,0.0,4.75,76.66,-9999.0,'1111122,1111122,1111122' 
DISL,ioos:station:DISL:PPTA:1,2012-12-01T21:30:00Z,30.2791,-87.5561,0.0,4.25,76.24,-9999.0,'1111122,1111122,1111122' 
DISL,ioos:station:DISL:PPTA:1,2012-12-01T22:00:00Z,30.2791,-87.5561,0.0,3.54,79.67,-9999.0,'1111122,1111122,1111122' 
DISL,ioos:station:DISL:PPTA:1,2012-12-01T22:30:00Z,30.2791,-87.5561,0.0,3.55,73.31,-9999.0,'1111122,1111122,1111122' 
DISL,ioos:station:DISL:PPTA:1,2012-12-01T23:00:00Z,30.2791,-87.5561,0.0,3.2,69.74,-9999.0,'1111122,1111122,1111122' 
DISL,ioos:station:DISL:PPTA:1,2012-12-01T23:30:00Z,30.2791,-87.5561,0.0,3.28,73.55,-9999.0,'1111122,1111122,1111122' 
DISL,ioos:station:DISL:PPTA:1,2012-12-02T00:00:00Z,30.2791,-87.5561,0.0,3.45,87.5,-9999.0,'1111122,1111122,1111122' 
DISL,ioos:station:DISL:PPTA:1,2012-12-02T00:30:00Z,30.2791,-87.5561,0.0,2.29,52.52,-9999.0,'1111122,1111122,1111122' 
DISL,ioos:station:DISL:PPTA:1,2012-12-02T01:00:00Z,30.2791,-87.5561,0.0,2.16,76.53,-9999.0,'1111122,1111122,1111122' 
DISL,ioos:station:DISL:PPTA:1,2012-12-02T01:30:00Z,30.2791,-87.5561,0.0,3.05,92.2,-9999.0,'1111122,1111122,1111122' 
DISL,ioos:station:DISL:PPTA:1,2012-12-02T02:00:00Z,30.2791,-87.5561,0.0,2.12,105.9,-9999.0,'1111122,1111122,1111122' 
DISL,ioos:station:DISL:PPTA:1,2012-12-02T02:30:00Z,30.2791,-87.5561,0.0,2.23,130.6,-9999.0,'1111122,1111122,1111122' 
DISL,ioos:station:DISL:PPTA:1,2012-12-02T03:00:00Z,30.2791,-87.5561,0.0,2.44,137.9,-9999.0,'1111122,1111122,1111122' 
DISL,ioos:station:DISL:PPTA:1,2012-12-02T03:30:00Z,30.2791,-87.5561,0.0,2.64,132.7,-9999.0,'1111122,1111122,1111122' 
DISL,ioos:station:DISL:PPTA:1,2012-12-02T04:00:00Z,30.2791,-87.5561,0.0,2.94,131.8,-9999.0,'1111122,1111122,1111122' 
DISL,ioos:station:DISL:PPTA:1,2012-12-02T04:30:00Z,30.2791,-87.5561,0.0,2.61,127.7,-9999.0,'1111122,1111122,1111122' 
DISL,ioos:station:DISL:PPTA:1,2012-12-02T05:00:00Z,30.2791,-87.5561,0.0,2.48,127.1,-9999.0,'1111122,1111122,1111122' 
DISL,ioos:station:DISL:PPTA:1,2012-12-02T05:30:00Z,30.2791,-87.5561,0.0,2.57,122.2,-9999.0,'1111122,1111122,1111122' 
DISL,ioos:station:DISL:PPTA:1,2012-12-02T06:00:00Z,30.2791,-87.5561,0.0,2.12,114.4,-9999.0,'1111122,1111122,1111122' 
DISL,ioos:station:DISL:PPTA:1,2012-12-02T06:30:00Z,30.2791,-87.5561,0.0,1.76,113.0,-9999.0,'1111122,1111122,1111122' 
DISL,ioos:station:DISL:PPTA:1,2012-12-02T07:00:00Z,30.2791,-87.5561,0.0,1.42,83.6,-9999.0,'1111122,1111122,1111122' 
DISL,ioos:station:DISL:PPTA:1,2012-12-02T07:30:00Z,30.2791,-87.5561,0.0,1.4,23.27,-9999.0,'1111122,1111122,1111122' 
DISL,ioos:station:DISL:PPTA:1,2012-12-02T08:00:00Z,30.2791,-87.5561,0.0,1.0,23.76,-9999.0,'1111122,1111122,1111122' 
DISL,ioos:station:DISL:PPTA:1,2012-12-02T08:30:00Z,30.2791,-87.5561,0.0,1.43,10.27,-9999.0,'1111122,1111122,1111122' 
DISL,ioos:station:DISL:PPTA:1,2012-12-02T09:00:00Z,30.2791,-87.5561,0.0,1.73,22.01,-9999.0,'1111122,1111122,1111122' 
DISL,ioos:station:DISL:PPTA:1,2012-12-02T09:30:00Z,30.2791,-87.5561,0.0,1.61,38.89,-9999.0,'1111122,1111122,1111122' 
DISL,ioos:station:DISL:PPTA:1,2012-12-02T10:00:00Z,30.2791,-87.5561,0.0,1.58,26.49,-9999.0,'1111122,1111122,1111122' 
DISL,ioos:station:DISL:PPTA:1,2012-12-02T10:30:00Z,30.2791,-87.5561,0.0,1.78,22.63,-9999.0,'1111122,1111122,1111122' 
DISL,ioos:station:DISL:PPTA:1,2012-12-02T11:00:00Z,30.2791,-87.5561,0.0,2.18,31.65,-9999.0,'1111122,1111122,1111122' 
DISL,ioos:station:DISL:PPTA:1,2012-12-02T11:30:00Z,30.2791,-87.5561,0.0,2.29,23.71,-9999.0,'1111122,1111122,1111122' 
DISL,ioos:station:DISL:PPTA:1,2012-12-02T12:00:00Z,30.2791,-87.5561,0.0,2.46,20.48,-9999.0,'1111122,1111122,1111122' 
DISL,ioos:station:DISL:PPTA:1,2012-12-02T12:30:00Z,30.2791,-87.5561,0.0,2.55,36.62,-9999.0,'1111122,1111122,1111122' 
DISL,ioos:station:DISL:PPTA:1,2012-12-02T13:00:00Z,30.2791,-87.5561,0.0,2.44,32.42,-9999.0,'1111122,1111122,1111122' 
DISL,ioos:station:DISL:PPTA:1,2012-12-02T13:30:00Z,30.2791,-87.5561,0.0,1.78,20.49,-9999.0,'1111122,1111122,1111122' 
DISL,ioos:station:DISL:PPTA:1,2012-12-02T14:00:00Z,30.2791,-87.5561,0.0,1.48,25.84,-9999.0,'1111122,1111122,1111122' 
DISL,ioos:station:DISL:PPTA:1,2012-12-02T14:30:00Z,30.2791,-87.5561,0.0,2.94,55.89,-9999.0,'1111122,1111122,1111122' 
DISL,ioos:station:DISL:PPTA:1,2012-12-02T15:00:00Z,30.2791,-87.5561,0.0,2.62,59.78,-9999.0,'1111122,1111122,1111122' 
DISL,ioos:station:DISL:PPTA:1,2012-12-02T15:30:00Z,30.2791,-87.5561,0.0,2.3,62.24,-9999.0,'1111122,1111122,1111122' 
DISL,ioos:station:DISL:PPTA:1,2012-12-02T16:00:00Z,30.2791,-87.5561,0.0,2.1,59.55,-9999.0,'1111122,1111122,1111122' 
DISL,ioos:station:DISL:PPTA:1,2012-12-02T16:30:00Z,30.2791,-87.5561,0.0,3.48,71.76,-9999.0,'1111122,1111122,1111122' 
DISL,ioos:station:DISL:PPTA:1,2012-12-02T17:00:00Z,30.2791,-87.5561,0.0,3.89,75.64,-9999.0,'1111122,1111122,1111122' 
DISL,ioos:station:DISL:PPTA:1,2012-12-02T17:30:00Z,30.2791,-87.5561,0.0,4.79,74.56,-9999.0,'1111122,1111122,1111122' 
DISL,ioos:station:DISL:PPTA:1,2012-12-02T18:00:00Z,30.2791,-87.5561,0.0,4.34,79.37,-9999.0,'1111122,1111122,1111122' 
DISL,ioos:station:DISL:PPTA:1,2012-12-02T18:30:00Z,30.2791,-87.5561,0.0,3.68,88.1,-9999.0,'1111122,1111122,1111122' 
DISL,ioos:station:DISL:PPTA:1,2012-12-02T19:00:00Z,30.2791,-87.5561,0.0,4.11,85.5,-9999.0,'1111122,1111122,1111122' 
DISL,ioos:station:DISL:PPTA:1,2012-12-02T19:30:00Z,30.2791,-87.5561,0.0,4.79,90.6,-9999.0,'1111122,1111122,1111122' 
DISL,ioos:station:DISL:PPTA:1,2012-12-02T20:00:00Z,30.2791,-87.5561,0.0,4.29,92.9,-9999.0,'1111122,1111122,1111122' 
DISL,ioos:station:DISL:PPTA:1,2012-12-02T20:30:00Z,30.2791,-87.5561,0.0,3.98,90.0,-9999.0,'1111122,1111122,1111122' 
DISL,ioos:station:DISL:PPTA:1,2012-12-02T21:00:00Z,30.2791,-87.5561,0.0,4.25,91.1,-9999.0,'1111122,1111122,1111122' 
DISL,ioos:station:DISL:PPTA:1,2012-12-02T21:30:00Z,30.2791,-87.5561,0.0,4.01,78.02,-9999.0,'1111122,1111122,1111122' 
DISL,ioos:station:DISL:PPTA:1,2012-12-02T22:00:00Z,30.2791,-87.5561,0.0,3.4,87.7,-9999.0,'1111122,1111122,1111122' 
DISL,ioos:station:DISL:PPTA:1,2012-12-02T22:30:00Z,30.2791,-87.5561,0.0,3.78,88.6,-9999.0,'1111122,1111122,1111122' 
DISL,ioos:station:DISL:PPTA:1,2012-12-02T23:00:00Z,30.2791,-87.5561,0.0,3.59,87.4,-9999.0,'1111122,1111122,1111122' 
DISL,ioos:station:DISL:PPTA:1,2012-12-02T23:30:00Z,30.2791,-87.5561,0.0,3.43,89.4,-9999.0,'1111122,1111122,1111122' 
DISL,ioos:station:DISL:PPTA:1,2012-12-03T00:00:00Z,30.2791,-87.5561,0.0,2.49,91.5,-9999.0,'1111122,1111122,1111122' 
DISL,ioos:station:DISL:PPTA:1,2012-12-03T00:30:00Z,30.2791,-87.5561,0.0,2.53,92.1,-9999.0,'1111122,1111122,1111122' 
DISL,ioos:station:DISL:PPTA:1,2012-12-03T01:00:00Z,30.2791,-87.5561,0.0,2.34,106.4,-9999.0,'1111122,1111122,1111122' 
DISL,ioos:station:DISL:PPTA:1,2012-12-03T01:30:00Z,30.2791,-87.5561,0.0,1.25,87.7,-9999.0,'1111122,1111122,1111122' 
DISL,ioos:station:DISL:PPTA:1,2012-12-03T02:00:00Z,30.2791,-87.5561,0.0,2.1,93.5,-9999.0,'1111122,1111122,1111122' 
DISL,ioos:station:DISL:PPTA:1,2012-12-03T02:30:00Z,30.2791,-87.5561,0.0,2.0,86.2,-9999.0,'1111122,1111122,1111122' 
DISL,ioos:station:DISL:PPTA:1,2012-12-03T03:00:00Z,30.2791,-87.5561,0.0,1.88,89.5,-9999.0,'1111122,1111122,1111122' 
DISL,ioos:station:DISL:PPTA:1,2012-12-03T03:30:00Z,30.2791,-87.5561,0.0,1.14,78.75,-9999.0,'1111122,1111122,1111122' 
DISL,ioos:station:DISL:PPTA:1,2012-12-03T04:00:00Z,30.2791,-87.5561,0.0,0.65,42.96,-9999.0,'1111122,1111122,1111122' 
DISL,ioos:station:DISL:PPTA:1,2012-12-03T04:30:00Z,30.2791,-87.5561,0.0,1.2,73.57,-9999.0,'1111122,1111122,1111122' 
DISL,ioos:station:DISL:PPTA:1,2012-12-03T05:00:00Z,30.2791,-87.5561,0.0,2.13,90.4,-9999.0,'1111122,1111122,1111122' 
DISL,ioos:station:DISL:PPTA:1,2012-12-03T05:30:00Z,30.2791,-87.5561,0.0,1.47,79.44,-9999.0,'1111122,1111122,1111122' 
DISL,ioos:station:DISL:PPTA:1,2012-12-03T06:00:00Z,30.2791,-87.5561,0.0,1.41,56.42,-9999.0,'1111122,1111122,1111122' 
DISL,ioos:station:DISL:PPTA:1,2012-12-03T06:30:00Z,30.2791,-87.5561,0.0,1.33,58.31,-9999.0,'1111122,1111122,1111122' 
DISL,ioos:station:DISL:PPTA:1,2012-12-03T07:00:00Z,30.2791,-87.5561,0.0,1.13,38.64,-9999.0,'1111122,1111122,1111122' 
DISL,ioos:station:DISL:PPTA:1,2012-12-03T07:30:00Z,30.2791,-87.5561,0.0,1.32,65.35,-9999.0,'1111122,1111122,1111122' 
DISL,ioos:station:DISL:PPTA:1,2012-12-03T08:00:00Z,30.2791,-87.5561,0.0,0.99,338.9,-9999.0,'1111122,1111122,1111122' 
DISL,ioos:station:DISL:PPTA:1,2012-12-03T08:30:00Z,30.2791,-87.5561,0.0,1.39,32.14,-9999.0,'1111122,1111122,1111122' 
DISL,ioos:station:DISL:PPTA:1,2012-12-03T09:00:00Z,30.2791,-87.5561,0.0,1.68,32.87,-9999.0,'1111122,1111122,1111122' 
DISL,ioos:station:DISL:PPTA:1,2012-12-03T09:30:00Z,30.2791,-87.5561,0.0,2.18,43.27,-9999.0,'1111122,1111122,1111122' 
DISL,ioos:station:DISL:PPTA:1,2012-12-03T10:00:00Z,30.2791,-87.5561,0.0,1.38,34.1,-9999.0,'1111122,1111122,1111122' 
DISL,ioos:station:DISL:PPTA:1,2012-12-03T10:30:00Z,30.2791,-87.5561,0.0,1.9,22.32,-9999.0,'1111122,1111122,1111122' 
DISL,ioos:station:DISL:PPTA:1,2012-12-03T11:00:00Z,30.2791,-87.5561,0.0,1.5,26.45,-9999.0,'1111122,1111122,1111122' 
DISL,ioos:station:DISL:PPTA:1,2012-12-03T11:30:00Z,30.2791,-87.5561,0.0,2.1,46.76,-9999.0,'1111122,1111122,1111122' 
DISL,ioos:station:DISL:PPTA:1,2012-12-03T12:00:00Z,30.2791,-87.5561,0.0,2.56,57.79,-9999.0,'1111122,1111122,1111122' 
DISL,ioos:station:DISL:PPTA:1,2012-12-03T12:30:00Z,30.2791,-87.5561,0.0,2.97,52.86,-9999.0,'1111122,1111122,1111122' 
DISL,ioos:station:DISL:PPTA:1,2012-12-03T13:00:00Z,30.2791,-87.5561,0.0,2.63,47.07,-9999.0,'1111122,1111122,1111122' 
DISL,ioos:station:DISL:PPTA:1,2012-12-03T13:30:00Z,30.2791,-87.5561,0.0,3.23,62.22,-9999.0,'1111122,1111122,1111122' 
DISL,ioos:station:DISL:PPTA:1,2012-12-03T14:00:00Z,30.2791,-87.5561,0.0,2.78,45.22,-9999.0,'1111122,1111122,1111122' 
DISL,ioos:station:DISL:PPTA:1,2012-12-03T14:30:00Z,30.2791,-87.5561,0.0,3.57,53.13,-9999.0,'1111122,1111122,1111122' 
DISL,ioos:station:DISL:PPTA:1,2012-12-03T15:00:00Z,30.2791,-87.5561,0.0,3.59,51.69,-9999.0,'1111122,1111122,1111122' 
DISL,ioos:station:DISL:PPTA:1,2012-12-03T15:30:00Z,30.2791,-87.5561,0.0,3.54,85.2,-9999.0,'1111122,1111122,1111122' 
DISL,ioos:station:DISL:PPTA:1,2012-12-03T16:00:00Z,30.2791,-87.5561,0.0,3.17,97.5,-9999.0,'1111122,1111122,1111122' 
DISL,ioos:station:DISL:PPTA:1,2012-12-03T16:30:00Z,30.2791,-87.5561,0.0,3.12,100.4,-9999.0,'1111122,1111122,1111122' 
DISL,ioos:station:DISL:PPTA:1,2012-12-03T17:00:00Z,30.2791,-87.5561,0.0,3.85,94.5,-9999.0,'1111122,1111122,1111122' 
DISL,ioos:station:DISL:PPTA:1,2012-12-03T17:30:00Z,30.2791,-87.5561,0.0,3.77,95.5,-9999.0,'1111122,1111122,1111122' 
DISL,ioos:station:DISL:PPTA:1,2012-12-03T18:00:00Z,30.2791,-87.5561,0.0,4.97,87.8,-9999.0,'1111122,1111122,1111122' 
DISL,ioos:station:DISL:PPTA:1,2012-12-03T18:30:00Z,30.2791,-87.5561,0.0,3.41,94.9,-9999.0,'1111122,1111122,1111122' 
DISL,ioos:station:DISL:PPTA:1,2012-12-03T19:00:00Z,30.2791,-87.5561,0.0,2.89,101.3,-9999.0,'1111122,1111122,1111122' 
DISL,ioos:station:DISL:PPTA:1,2012-12-03T19:30:00Z,30.2791,-87.5561,0.0,3.29,93.5,-9999.0,'1111122,1111122,1111122' 
DISL,ioos:station:DISL:PPTA:1,2012-12-03T20:00:00Z,30.2791,-87.5561,0.0,3.23,93.7,-9999.0,'1111122,1111122,1111122' 
DISL,ioos:station:DISL:PPTA:1,2012-12-03T20:30:00Z,30.2791,-87.5561,0.0,3.26,91.0,-9999.0,'1111122,1111122,1111122' 
DISL,ioos:station:DISL:PPTA:1,2012-12-03T21:00:00Z,30.2791,-87.5561,0.0,3.05,95.4,-9999.0,'1111122,1111122,1111122' 
DISL,ioos:station:DISL:PPTA:1,2012-12-03T21:30:00Z,30.2791,-87.5561,0.0,3.9,88.9,-9999.0,'1111122,1111122,1111122' 
DISL,ioos:station:DISL:PPTA:1,2012-12-03T22:00:00Z,30.2791,-87.5561,0.0,3.79,89.8,-9999.0,'1111122,1111122,1111122' 
DISL,ioos:station:DISL:PPTA:1,2012-12-03T22:30:00Z,30.2791,-87.5561,0.0,3.77,90.3,-9999.0,'1111122,1111122,1111122' 
DISL,ioos:station:DISL:PPTA:1,2012-12-03T23:00:00Z,30.2791,-87.5561,0.0,3.27,90.0,-9999.0,'1111122,1111122,1111122' 
DISL,ioos:station:DISL:PPTA:1,2012-12-03T23:30:00Z,30.2791,-87.5561,0.0,3.25,93.1,-9999.0,'1111122,1111122,1111122' 
DISL,ioos:station:DISL:PPTA:1,2012-12-04T00:00:00Z,30.2791,-87.5561,0.0,2.62,103.8,-9999.0,'1111122,1111122,1111122' 
DISL,ioos:station:DISL:PPTA:1,2012-12-04T00:30:00Z,30.2791,-87.5561,0.0,2.89,107.6,-9999.0,'1111122,1111122,1111122' 
DISL,ioos:station:DISL:PPTA:1,2012-12-04T01:00:00Z,30.2791,-87.5561,0.0,4.1,111.6,-9999.0,'1111122,1111122,1111122' 
DISL,ioos:station:DISL:PPTA:1,2012-12-04T01:30:00Z,30.2791,-87.5561,0.0,3.62,113.8,-9999.0,'1111122,1111122,1111122' 
DISL,ioos:station:DISL:PPTA:1,2012-12-04T02:00:00Z,30.2791,-87.5561,0.0,2.46,116.8,-9999.0,'1111122,1111122,1111122' 
DISL,ioos:station:DISL:PPTA:1,2012-12-04T02:30:00Z,30.2791,-87.5561,0.0,2.5,108.0,-9999.0,'1111122,1111122,1111122' 
DISL,ioos:station:DISL:PPTA:1,2012-12-04T03:00:00Z,30.2791,-87.5561,0.0,1.95,98.6,-9999.0,'1111122,1111122,1111122' 
DISL,ioos:station:DISL:PPTA:1,2012-12-04T03:30:00Z,30.2791,-87.5561,0.0,2.25,103.9,-9999.0,'1111122,1111122,1111122' 
DISL,ioos:station:DISL:PPTA:1,2012-12-04T04:00:00Z,30.2791,-87.5561,0.0,2.48,96.5,-9999.0,'1111122,1111122,1111122' 
DISL,ioos:station:DISL:PPTA:1,2012-12-04T04:30:00Z,30.2791,-87.5561,0.0,2.18,127.4,-9999.0,'1111122,1111122,1111122' 
DISL,ioos:station:DISL:PPTA:1,2012-12-04T05:00:00Z,30.2791,-87.5561,0.0,2.56,125.1,-9999.0,'1111122,1111122,1111122' 
DISL,ioos:station:DISL:PPTA:1,2012-12-04T05:30:00Z,30.2791,-87.5561,0.0,2.85,137.2,-9999.0,'1111122,1111122,1111122' 
DISL,ioos:station:DISL:PPTA:1,2012-12-04T06:00:00Z,30.2791,-87.5561,0.0,3.39,142.3,-9999.0,'1111122,1111122,1111122' 
DISL,ioos:station:DISL:PPTA:1,2012-12-04T06:30:00Z,30.2791,-87.5561,0.0,3.96,150.2,-9999.0,'1111122,1111122,1111122' 
DISL,ioos:station:DISL:PPTA:1,2012-12-04T07:00:00Z,30.2791,-87.5561,0.0,4.06,148.8,-9999.0,'1111122,1111122,1111122' 
DISL,ioos:station:DISL:PPTA:1,2012-12-04T07:30:00Z,30.2791,-87.5561,0.0,3.24,148.9,-9999.0,'1111122,1111122,1111122' 
DISL,ioos:station:DISL:PPTA:1,2012-12-04T08:00:00Z,30.2791,-87.5561,0.0,2.91,151.4,-9999.0,'1111122,1111122,1111122' 
DISL,ioos:station:DISL:PPTA:1,2012-12-04T08:30:00Z,30.2791,-87.5561,0.0,3.61,149.1,-9999.0,'1111122,1111122,1111122' 
DISL,ioos:station:DISL:PPTA:1,2012-12-04T09:00:00Z,30.2791,-87.5561,0.0,4.08,152.8,-9999.0,'1111122,1111122,1111122' 
DISL,ioos:station:DISL:PPTA:1,2012-12-04T09:30:00Z,30.2791,-87.5561,0.0,3.44,142.9,-9999.0,'1111122,1111122,1111122' 
DISL,ioos:station:DISL:PPTA:1,2012-12-04T10:00:00Z,30.2791,-87.5561,0.0,3.9,154.6,-9999.0,'1111122,1111122,1111122' 
DISL,ioos:station:DISL:PPTA:1,2012-12-04T10:30:00Z,30.2791,-87.5561,0.0,3.64,146.5,-9999.0,'1111122,1111122,1111122' 
DISL,ioos:station:DISL:PPTA:1,2012-12-04T11:00:00Z,30.2791,-87.5561,0.0,3.04,142.2,-9999.0,'1111122,1111122,1111122' 
DISL,ioos:station:DISL:PPTA:1,2012-12-04T11:30:00Z,30.2791,-87.5561,0.0,2.05,142.9,-9999.0,'1111122,1111122,1111122' 
DISL,ioos:station:DISL:PPTA:1,2012-12-04T12:00:00Z,30.2791,-87.5561,0.0,2.34,128.2,-9999.0,'1111122,1111122,1111122' 
DISL,ioos:station:DISL:PPTA:1,2012-12-04T12:30:00Z,30.2791,-87.5561,0.0,2.27,130.3,-9999.0,'1111122,1111122,1111122' 
DISL,ioos:station:DISL:PPTA:1,2012-12-04T13:00:00Z,30.2791,-87.5561,0.0,2.29,130.7,-9999.0,'1111122,1111122,1111122' 
DISL,ioos:station:DISL:PPTA:1,2012-12-04T13:30:00Z,30.2791,-87.5561,0.0,1.65,123.4,-9999.0,'1111122,1111122,1111122' 
DISL,ioos:station:DISL:PPTA:1,2012-12-04T14:00:00Z,30.2791,-87.5561,0.0,2.52,126.8,-9999.0,'1111122,1111122,1111122' 
DISL,ioos:station:DISL:PPTA:1,2012-12-04T14:30:00Z,30.2791,-87.5561,0.0,2.77,131.9,-9999.0,'1111122,1111122,1111122' 
DISL,ioos:station:DISL:PPTA:1,2012-12-04T15:00:00Z,30.2791,-87.5561,0.0,2.87,131.9,-9999.0,'1111122,1111122,1111122' 
DISL,ioos:station:DISL:PPTA:1,2012-12-04T15:30:00Z,30.2791,-87.5561,0.0,2.45,126.2,-9999.0,'1111122,1111122,1111122' 
DISL,ioos:station:DISL:PPTA:1,2012-12-04T16:00:00Z,30.2791,-87.5561,0.0,2.52,126.5,-9999.0,'1111122,1111122,1111122' 
DISL,ioos:station:DISL:PPTA:1,2012-12-04T16:30:00Z,30.2791,-87.5561,0.0,2.39,139.3,-9999.0,'1111122,1111122,1111122' 
DISL,ioos:station:DISL:PPTA:1,2012-12-04T17:00:00Z,30.2791,-87.5561,0.0,2.48,137.4,-9999.0,'1111122,1111122,1111122' 
DISL,ioos:station:DISL:PPTA:1,2012-12-04T17:30:00Z,30.2791,-87.5561,0.0,2.8,134.1,-9999.0,'1111122,1111122,1111122' 
DISL,ioos:station:DISL:PPTA:1,2012-12-04T18:00:00Z,30.2791,-87.5561,0.0,2.2,143.9,-9999.0,'1111122,1111122,1111122' 
DISL,ioos:station:DISL:PPTA:1,2012-12-04T18:30:00Z,30.2791,-87.5561,0.0,1.8,149.4,-9999.0,'1111122,1111122,1111122' 
DISL,ioos:station:DISL:PPTA:1,2012-12-04T19:00:00Z,30.2791,-87.5561,0.0,1.42,157.8,-9999.0,'1111122,1111122,1111122' 
DISL,ioos:station:DISL:PPTA:1,2012-12-04T19:30:00Z,30.2791,-87.5561,0.0,2.16,150.3,-9999.0,'1111122,1111122,1111122' 
DISL,ioos:station:DISL:PPTA:1,2012-12-04T20:00:00Z,30.2791,-87.5561,0.0,2.3,138.6,-9999.0,'1111122,1111122,1111122' 
DISL,ioos:station:DISL:PPTA:1,2012-12-04T20:30:00Z,30.2791,-87.5561,0.0,2.44,127.3,-9999.0,'1111122,1111122,1111122' 
DISL,ioos:station:DISL:PPTA:1,2012-12-04T21:00:00Z,30.2791,-87.5561,0.0,2.06,118.1,-9999.0,'1111122,1111122,1111122' 
DISL,ioos:station:DISL:PPTA:1,2012-12-04T21:30:00Z,30.2791,-87.5561,0.0,2.48,127.9,-9999.0,'1111122,1111122,1111122' 
DISL,ioos:station:DISL:PPTA:1,2012-12-04T22:00:00Z,30.2791,-87.5561,0.0,2.05,126.6,-9999.0,'1111122,1111122,1111122' 
DISL,ioos:station:DISL:PPTA:1,2012-12-04T22:30:00Z,30.2791,-87.5561,0.0,1.74,112.2,-9999.0,'1111122,1111122,1111122' 
DISL,ioos:station:DISL:PPTA:1,2012-12-04T23:00:00Z,30.2791,-87.5561,0.0,2.22,107.9,-9999.0,'1111122,1111122,1111122' 
DISL,ioos:station:DISL:PPTA:1,2012-12-04T23:30:00Z,30.2791,-87.5561,0.0,2.32,107.3,-9999.0,'1111122,1111122,1111122' 
DISL,ioos:station:DISL:PPTA:1,2012-12-05T00:00:00Z,30.2791,-87.5561,0.0,2.52,103.8,-9999.0,'1111122,1111122,1111122' 
DISL,ioos:station:DISL:PPTA:1,2012-12-05T00:30:00Z,30.2791,-87.5561,0.0,2.46,113.2,-9999.0,'1111122,1111122,1111122' 
DISL,ioos:station:DISL:PPTA:1,2012-12-05T01:00:00Z,30.2791,-87.5561,0.0,2.45,119.7,-9999.0,'1111122,1111122,1111122' 
DISL,ioos:station:DISL:PPTA:1,2012-12-05T01:30:00Z,30.2791,-87.5561,0.0,2.99,124.3,-9999.0,'1111122,1111122,1111122' 
DISL,ioos:station:DISL:PPTA:1,2012-12-05T02:00:00Z,30.2791,-87.5561,0.0,2.98,130.3,-9999.0,'1111122,1111122,1111122' 
DISL,ioos:station:DISL:PPTA:1,2012-12-05T02:30:00Z,30.2791,-87.5561,0.0,3.2,136.2,-9999.0,'1111122,1111122,1111122' 
DISL,ioos:station:DISL:PPTA:1,2012-12-05T03:00:00Z,30.2791,-87.5561,0.0,2.61,127.8,-9999.0,'1111122,1111122,1111122' 
DISL,ioos:station:DISL:PPTA:1,2012-12-05T03:30:00Z,30.2791,-87.5561,0.0,2.49,140.6,-9999.0,'1111122,1111122,1111122' 
DISL,ioos:station:DISL:PPTA:1,2012-12-05T04:00:00Z,30.2791,-87.5561,0.0,2.43,145.6,-9999.0,'1111122,1111122,1111122' 
DISL,ioos:station:DISL:PPTA:1,2012-12-05T04:30:00Z,30.2791,-87.5561,0.0,1.67,132.1,-9999.0,'1111122,1111122,1111122' 
DISL,ioos:station:DISL:PPTA:1,2012-12-05T05:00:00Z,30.2791,-87.5561,0.0,2.15,119.7,-9999.0,'1111122,1111122,1111122' 